Whiteman AFB, MO

6:26 AM CST on November 18, 2017 (GMT -0600)
Whiteman Air Force Base

Weather History for KSZL - January, 2012

Change the Weather History Date:

Sunday, January 29, 2012

  Actual Average Record
Temperature  
Mean Temperature 39 °F -  
Max Temperature 49 °F 38 °F 65 °F (2013)
Min Temperature 29 °F 22 °F 3 °F (2004)
Degree Days  
Heating Degree Days 26    
Moisture  
Dew Point 18 °F    
Average Humidity 46    
Maximum Humidity 71    
Minimum Humidity 27    
Precipitation  
Precipitation 0.00 in - - ()
Sea Level Pressure  
Sea Level Pressure 30.23 in    
Wind  
Wind Speed 10 mph (SW)    
Max Wind Speed 14 mph    
Max Gust Speed -    
Visibility 10 miles    
Events      
Averages and records for this station are not official NWS values.
T = Trace of Precipitation, MM = Missing Value Source: NWS Daily Summary

Daily Weather History Graph

Daily Weather History Graph

Search for Another Location

Airport or City:

Trip Planner

Search our weather history database for the weather conditions in past years. The results will help you decide how hot, cold, wet, or windy it might be!

Date:

Astronomy

Jan. 29, 2012 Rise Set
Actual Time 7:23 AM CST 5:31 PM CST
Civil Twilight 6:54 AM CST 6:00 PM CST
Nautical Twilight 6:22 AM CST 6:32 PM CST
Astronomical Twilight 5:51 AM CST 7:03 PM CST
Moon 10:19 AM CST (1/29) No Moon Set
Length of Visible Light 11h 05m
Length of Day
10h 08m
Waxing Crescent, 37% of the Moon is Illuminated
Jan 29
Waxing Crescent
Jan 30
First Quarter
Feb 7
Full
Feb 14
Last Quarter
Feb 21
New

Hourly Weather History & Observations

Time (CST) Temp. Windchill Dew Point Humidity Pressure Visibility Wind Dir Wind Speed Gust Speed Precip Events Conditions
12:55 AM 36.3 °F 27.5 °F 14.2 °F 40% 30.25 in 10.0 mi WSW 13.8 mph - N/A   Clear
1:55 AM 34.7 °F 25.9 °F 15.6 °F 46% 30.24 in 10.0 mi SW 12.7 mph - N/A   Clear
2:55 AM 33.8 °F 24.3 °F 16.7 °F 50% 30.23 in 10.0 mi WSW 13.8 mph - N/A   Clear
3:55 AM 32.4 °F 24.6 °F 16.9 °F 53% 30.24 in 10.0 mi WSW 9.2 mph - N/A   Clear
4:55 AM 31.1 °F 22.4 °F 16.9 °F 56% 30.24 in 10.0 mi WSW 10.4 mph - N/A   Clear
5:55 AM 30.4 °F 22.9 °F 15.8 °F 55% 30.24 in 10.0 mi WSW 8.1 mph - N/A   Clear
6:55 AM 30.6 °F 21.2 °F 17.2 °F 58% 30.26 in 10.0 mi WSW 11.5 mph - N/A   Clear
7:55 AM 29.1 °F 22.1 °F 17.6 °F 62% 30.28 in 10.0 mi West 6.9 mph - N/A   Clear
8:55 AM 34.9 °F 27.7 °F 15.8 °F 46% 30.29 in 10.0 mi West 9.2 mph - N/A   Clear
9:55 AM 38.7 °F 31.8 °F 13.3 °F 35% 30.29 in 10.0 mi NW 10.4 mph - N/A   Clear
10:55 AM 41.0 °F 36.4 °F 15.4 °F 36% 30.31 in 10.0 mi North 6.9 mph - N/A   Clear
11:55 AM 43.2 °F - 16.2 °F 34% 30.30 in 10.0 mi Calm Calm - N/A   Clear
12:55 PM 46.0 °F - 16.9 °F 31% 30.26 in 10.0 mi Calm Calm - N/A   Partly Cloudy
1:55 PM 48.0 °F - 16.7 °F 29% 30.24 in 10.0 mi South 6.9 mph - N/A   Partly Cloudy
2:55 PM 48.9 °F - 16.5 °F 28% 30.22 in 10.0 mi South 8.1 mph - N/A   Clear
3:55 PM 49.5 °F - 16.9 °F 27% 30.21 in 10.0 mi South 8.1 mph - N/A   Clear
4:55 PM 46.0 °F 42.5 °F 19.8 °F 35% 30.22 in 10.0 mi SSW 6.9 mph - N/A   Clear
5:55 PM 42.6 °F 40.9 °F 20.7 °F 42% 30.21 in 10.0 mi South 3.5 mph - N/A   Clear
6:55 PM 39.7 °F 36.5 °F 20.5 °F 46% 30.20 in 10.0 mi ESE 4.6 mph - N/A   Clear
7:55 PM 37.6 °F 33.1 °F 20.7 °F 51% 30.19 in 10.0 mi SSE 5.8 mph - N/A   Clear
8:55 PM 39.2 °F 35.9 °F 20.3 °F 47% 30.17 in 10.0 mi SSE 4.6 mph - N/A   Overcast
9:55 PM 38.5 °F 31.6 °F 25.5 °F 60% 30.14 in 10.0 mi South 10.4 mph - N/A   Overcast
10:55 PM 37.8 °F 31.3 °F 26.8 °F 65% 30.14 in 10.0 mi SSW 9.2 mph - N/A   Clear
11:55 PM 36.9 °F 29.6 °F 28.2 °F 71% 30.12 in 10.0 mi SSW 10.4 mph - N/A   Clear